Orbital Elements at Epoch 2459000.5 (2020-May-31.0) TDB
Reference: JPL 12 (heliocentric ecliptic J2000)
Element | Value | Uncertainty (1-sigma) | Units |
e | .1056301496324559 | 6.4702e-08 | |
a | 2.203503323843649 | 1.0764e-08 | au |
q | 1.97074693803043 | 1.425e-07 | au |
i | 7.686211588826251 | 6.1962e-06 | deg |
node | 335.1733186981662 | 5.0723e-05 | deg |
peri | 79.02934120411109 | 5.7762e-05 | deg |
M | 157.6826584849666 | 2.7898e-05 | deg |
tp | 2458477.200373886621 (2018-Dec-24.70037389) | 9.1687e-05 | TDB |
period | 1194.727861712056 3.27 | 8.7542e-06 2.397e-08 | d yr |
n | .3013238508425815 | 2.2079e-09 | deg/d |
Q | 2.436259709656867 | 1.1901e-08 | au |
|
| | Orbit Determination Parameters
Additional Information
|